Weather reports worldwide

Advertisment
Greensboro/G.-High Pt., United States of America (72317): temperature & dewpoint: 16.07.2019 02:00:00 - 22.07.2019 02:00:00 (EDT)Greensboro/G.-High Pt., United States of America (72317): wind speed & gusts: 16.07.2019 02:00:00 - 22.07.2019 02:00:00 (EDT)Greensboro/G.-High Pt., United States of America (72317): wind direction: 16.07.2019 02:00:00 - 22.07.2019 02:00:00 (EDT)Greensboro/G.-High Pt., United States of America (72317): reduced air pressure: 16.07.2019 02:00:00 - 22.07.2019 02:00:00 (EDT)Greensboro/G.-High Pt., United States of America (72317): visibility: 16.07.2019 02:00:00 - 22.07.2019 02:00:00 (EDT)Greensboro/G.-High Pt., United States of America (72317): precipitation: 16.07.2019 02:00:00 - 22.07.2019 02:00:00 (EDT)
Date & Time tt [°C] td [°C] ff [km/h] ff [kn] fx [km/h] fx [kn] dd ppp [hPa] vv [km] rr [mm]
22.07.2019 02:00:00 26,7 21,7 13 7 - - WSW 1013,9 16 -
22.07.2019 01:00:00 27,2 21,7 16 9 - - SW 1014,0 16 -
22.07.2019 00:00:00 27,2 21,1 13 7 - - SW 1014,0 16 -
21.07.2019 23:00:00 28,3 21,1 11 6 - - SW 1014,2 16 0,0
21.07.2019 22:00:00 28,9 20,6 13 7 - - SW 1013,9 16 -
21.07.2019 21:00:00 30,0 20,0 15 8 - - SW 1013,5 16 -
21.07.2019 20:00:00 31,1 20,0 15 8 - - SW 1013,2 16 0,0
21.07.2019 19:00:00 32,2 20,0 18 10 - - SSW 1012,9 16 -
21.07.2019 18:00:00 33,3 20,0 24 13 - - SSW 1012,9 16 -
21.07.2019 17:00:00 33,9 20,6 18 10 - - SW 1013,6 16 0,0
21.07.2019 16:00:00 34,4 21,7 16 9 - - SW 1013,4 16 -
21.07.2019 15:00:00 33,9 20,6 22 12 - - W 1013,8 16 -
21.07.2019 14:00:00 33,3 21,7 16 9 - - WSW 1014,4 16 0,0
21.07.2019 13:00:00 32,8 21,7 26 14 - - W 1015,0 16 -
21.07.2019 12:00:00 31,7 22,2 26 14 - - WSW 1015,4 16 -
21.07.2019 11:00:00 28,9 22,8 18 10 - - WSW 1015,4 16 0,0
21.07.2019 10:00:00 28,3 22,2 21 11 - - WSW 1015,1 16 -
21.07.2019 09:00:00 27,2 23,3 18 10 - - WSW 1015,5 16 -
21.07.2019 08:00:00 24,4 23,3 9 5 - - WSW 1015,1 16 0,0
21.07.2019 07:00:00 24,4 23,3 9 5 - - WSW 1014,5 16 -
21.07.2019 06:00:00 23,9 23,3 11 6 - - SW 1014,4 16 -
21.07.2019 05:00:00 23,9 22,8 9 5 - - WSW 1014,6 16 0,0
21.07.2019 04:00:00 24,4 23,3 11 6 - - WSW 1014,7 16 -
21.07.2019 03:00:00 25,0 23,3 11 6 - - WSW 1014,9 16 -
21.07.2019 02:00:00 25,0 23,3 15 8 - - WSW 1015,2 16 0,0
21.07.2019 01:00:00 25,0 22,8 13 7 - - SW 1015,1 16 -
21.07.2019 00:00:00 25,0 22,8 13 7 - - W 1015,0 16 -
20.07.2019 23:00:00 25,0 22,2 9 5 - - WSW 1014,9 16 0,0
20.07.2019 22:00:00 25,6 21,7 11 6 - - WSW 1014,7 16 -
20.07.2019 21:00:00 26,7 22,2 11 6 - - W 1014,6 16 -
20.07.2019 20:00:00 27,8 22,2 9 5 - - W 1014,6 16 0,0
20.07.2019 19:00:00 28,3 22,2 8 4 - - WSW 1014,2 16 -
20.07.2019 18:00:00 26,7 21,1 16 9 - - WNW 1014,6 16 -
20.07.2019 17:00:00 25,6 21,1 8 4 - - W 1014,7 16 0,0
20.07.2019 16:00:00 25,6 21,1 15 8 - - WSW 1015,0 16 -
20.07.2019 15:00:00 25,0 21,7 21 11 - - SW 1016,1 16 -
20.07.2019 14:00:00 27,2 21,1 16 9 - - WSW 1014,4 16 0,0
20.07.2019 13:00:00 34,4 22,8 13 7 - - N 1014,8 16 -
20.07.2019 12:00:00 33,9 22,2 13 7 - - NE 1015,6 16 -
20.07.2019 11:00:00 32,8 23,3 11 6 - - NNW 1015,7 16 0,0
20.07.2019 10:00:00 31,7 23,3 15 8 - - NE 1016,0 16 -
20.07.2019 09:00:00 29,4 23,9 8 4 - - N 1015,9 16 -
20.07.2019 08:00:00 26,7 23,3 0 0 - - N 1015,7 16 0,0
20.07.2019 07:00:00 25,0 22,8 0 0 - - N 1015,3 16 -
20.07.2019 06:00:00 24,4 22,8 5 3 - - NW 1014,9 16 -
20.07.2019 05:00:00 24,4 22,8 9 5 - - WNW 1014,5 16 0,0
20.07.2019 04:00:00 25,0 22,2 9 5 - - WNW 1014,6 16 -
20.07.2019 03:00:00 25,6 22,2 21 11 - - W 1014,7 16 -
20.07.2019 02:00:00 26,7 23,3 16 9 - - WSW 1015,5 16 0,0
20.07.2019 01:00:00 27,2 23,3 13 7 - - SSW 1015,3 16 -
20.07.2019 00:00:00 28,3 23,3 11 6 - - SSW 1015,6 16 -
19.07.2019 23:00:00 28,3 23,3 13 7 - - S 1015,3 16 0,0
19.07.2019 22:00:00 30,0 22,2 5 3 - - SW 1014,6 16 -
19.07.2019 21:00:00 30,6 22,2 5 3 - - W 1014,1 16 -
19.07.2019 20:00:00 32,8 21,7 8 4 - - NW 1014,0 16 0,0
19.07.2019 19:00:00 33,9 21,1 8 4 - - WNW 1013,7 16 -
19.07.2019 18:00:00 33,9 22,2 5 3 - - S 1013,7 16 -
19.07.2019 17:00:00 33,3 22,2 5 3 - - - 1014,3 16 0,0
19.07.2019 16:00:00 32,2 21,7 5 3 - - SW 1014,8 16 -
19.07.2019 15:00:00 32,8 21,7 5 3 - - - 1015,3 16 -
19.07.2019 14:00:00 33,3 21,7 9 5 - - ENE 1015,9 16 0,0
19.07.2019 13:00:00 32,8 22,2 5 3 - - - 1016,3 16 -
19.07.2019 12:00:00 31,7 22,8 8 4 - - - 1016,6 16 -
19.07.2019 11:00:00 30,6 22,2 11 6 - - N 1016,8 16 0,0
19.07.2019 10:00:00 29,4 22,2 9 5 - - NW 1016,7 16 -
19.07.2019 09:00:00 28,3 21,7 8 4 - - NNW 1016,4 16 -
19.07.2019 08:00:00 25,0 22,2 5 3 - - SSW 1015,8 16 0,0
19.07.2019 07:00:00 23,3 22,2 0 0 - - N 1015,3 16 -
19.07.2019 06:00:00 22,8 22,2 0 0 - - N 1014,4 16 -
19.07.2019 05:00:00 23,3 22,2 0 0 - - N 1014,3 16 0,0
19.07.2019 04:00:00 23,9 22,2 0 0 - - N 1014,2 16 -
19.07.2019 03:00:00 23,3 22,2 8 4 - - WSW 1014,5 16 -
19.07.2019 02:00:00 23,9 22,2 8 4 - - W 1014,6 16 0,0
19.07.2019 01:00:00 24,4 22,2 9 5 - - SW 1014,4 16 -
19.07.2019 00:00:00 24,4 21,7 9 5 - - SW 1014,5 16 -
18.07.2019 23:00:00 25,0 21,1 8 4 - - SW 1014,4 16 0,0
18.07.2019 22:00:00 25,6 21,1 9 5 - - WNW 1013,8 16 -
18.07.2019 21:00:00 26,1 20,6 8 4 - - W 1013,3 16 -
18.07.2019 20:00:00 25,6 21,1 9 5 - - NW 1013,2 16 -
18.07.2019 19:00:00 26,1 20,6 8 4 48 26 N 1013,9 16 0,0
18.07.2019 18:00:00 31,1 21,7 28 15 - - W 1012,6 16 -
18.07.2019 17:00:00 31,7 21,7 16 9 - - WSW 1012,5 16 0,0
18.07.2019 16:00:00 32,2 20,6 8 4 - - - 1013,3 16 -
18.07.2019 15:00:00 32,2 21,7 15 8 - - W 1013,7 16 -
18.07.2019 14:00:00 30,6 21,1 22 12 - - WSW 1014,1 16 0,0
18.07.2019 13:00:00 32,8 22,2 21 11 - - WSW 1014,3 16 -
18.07.2019 12:00:00 31,1 21,1 15 8 - - W 1014,6 16 -
18.07.2019 11:00:00 30,6 21,7 16 9 - - W 1014,8 16 0,0
18.07.2019 10:00:00 29,4 21,7 16 9 - - W 1014,8 16 -
18.07.2019 09:00:00 26,7 22,2 5 3 - - W 1014,9 16 -
18.07.2019 08:00:00 24,4 21,7 15 8 - - WSW 1015,0 16 0,0
18.07.2019 07:00:00 23,3 21,7 11 6 - - WSW 1014,1 16 -
18.07.2019 06:00:00 22,8 21,1 13 7 - - SW 1013,7 16 -
18.07.2019 05:00:00 23,3 20,6 13 7 - - SSW 1013,8 16 0,0
18.07.2019 04:00:00 23,3 20,6 9 5 - - SW 1013,9 16 -
18.07.2019 03:00:00 23,9 20,0 9 5 - - W 1014,0 16 -
18.07.2019 02:00:00 24,4 20,0 9 5 - - SSW 1014,3 16 0,0
18.07.2019 01:00:00 25,0 20,0 13 7 - - SW 1014,4 16 -
18.07.2019 00:00:00 26,1 19,4 11 6 - - WSW 1014,7 16 -
17.07.2019 23:00:00 27,2 20,0 15 8 - - SW 1014,8 16 0,0
17.07.2019 22:00:00 27,2 20,0 13 7 - - WSW 1015,0 16 -
17.07.2019 21:00:00 28,9 19,4 18 10 - - WSW 1014,2 16 -
17.07.2019 20:00:00 30,0 18,9 15 8 - - WSW 1013,8 16 0,0
17.07.2019 19:00:00 31,7 20,6 21 11 - - W 1013,9 16 -
17.07.2019 18:00:00 32,2 20,0 21 11 - - WSW 1014,0 16 -
17.07.2019 17:00:00 33,3 18,9 26 14 48 26 SW 1014,4 16 0,0
17.07.2019 16:00:00 35,6 18,9 29 16 48 26 SSW 1014,3 16 -
17.07.2019 15:00:00 34,4 20,0 31 17 48 26 SW 1015,3 16 -
17.07.2019 14:00:00 35,0 20,0 22 12 - - WSW 1016,2 16 0,0
17.07.2019 13:00:00 33,3 20,6 24 13 - - SW 1016,8 16 -
17.07.2019 12:00:00 32,8 21,1 28 15 50 27 SW 1017,2 16 -
17.07.2019 11:00:00 32,2 21,7 22 12 - - WSW 1017,3 16 0,0
17.07.2019 10:00:00 30,6 21,7 13 7 - - WSW 1017,3 16 -
17.07.2019 09:00:00 27,8 22,8 15 8 - - WSW 1017,5 16 -
17.07.2019 08:00:00 25,0 22,2 11 6 - - SSW 1017,4 16 0,0
17.07.2019 07:00:00 23,3 22,2 8 4 - - SW 1017,2 16 -
17.07.2019 06:00:00 23,3 22,2 8 4 - - SSW 1017,0 16 -
17.07.2019 05:00:00 23,9 22,2 8 4 - - S 1016,6 16 0,0
17.07.2019 04:00:00 25,0 22,2 9 5 - - SSW 1016,4 16 -
17.07.2019 03:00:00 25,0 22,2 9 5 - - SW 1016,7 16 -
17.07.2019 02:00:00 25,6 22,2 9 5 - - SW 1017,4 16 0,0
17.07.2019 01:00:00 26,7 21,7 8 4 - - SSW 1017,6 16 -
17.07.2019 00:00:00 27,2 21,7 8 4 - - SSW 1017,8 16 -
16.07.2019 23:00:00 28,3 21,1 5 3 - - SSW 1017,7 16 0,0
16.07.2019 22:00:00 29,4 20,6 8 4 - - S 1017,6 16 -
16.07.2019 21:00:00 30,6 20,6 8 4 - - S 1017,0 16 -
16.07.2019 20:00:00 31,7 20,0 11 6 - - SW 1016,7 16 0,0
16.07.2019 19:00:00 32,8 20,0 15 8 - - SSW 1016,7 16 -
16.07.2019 18:00:00 33,9 20,6 16 9 - - WSW 1016,8 16 -
16.07.2019 17:00:00 33,9 21,7 11 6 - - SW 1016,8 16 0,0
16.07.2019 16:00:00 33,9 21,7 15 8 - - SW 1017,5 16 -
16.07.2019 15:00:00 33,3 21,1 15 8 - - SSW 1018,1 16 -
16.07.2019 14:00:00 33,3 21,7 13 7 - - WSW 1018,7 16 0,0
16.07.2019 13:00:00 32,8 22,2 15 8 - - W 1019,1 16 -
16.07.2019 12:00:00 31,7 21,7 11 6 - - SSW 1019,5 16 -
16.07.2019 11:00:00 31,7 22,2 8 4 - - - 1019,4 16 0,0
16.07.2019 10:00:00 30,0 22,2 0 0 - - N 1019,5 16 -
16.07.2019 09:00:00 27,2 22,2 5 3 - - NE 1019,7 16 -
16.07.2019 08:00:00 25,6 22,2 8 4 - - ENE 1019,4 16 0,0
16.07.2019 07:00:00 23,9 22,2 0 0 - - N 1019,0 16 -
16.07.2019 06:00:00 23,9 22,2 5 3 - - N 1018,6 16 -
16.07.2019 05:00:00 24,4 22,8 5 3 - - N 1018,3 16 0,0
16.07.2019 04:00:00 24,4 22,2 8 4 - - ENE 1017,8 16 -
16.07.2019 03:00:00 25,0 22,8 0 0 - - N 1017,8 16 -
16.07.2019 02:00:00 25,6 21,7 8 4 - - NNE 1018,4 16 0,0

tt = temperature
td = dewpoint
ff = wind speed
fx = gusts
dd = wind direction
ppp = reduced air pressure
vv = visibility
rr = precipitation

Next stations